Content
SEND FEEDBACK

Daily
Averages
Monthly
Summary
United States of America

SLEDGE, MISSISSIPPI


Home > North America > United States > Mississippi
Elevation: 5 meters     Latitude: 34 26N     Longitude: 090 13W

WEATHER
 
SELECT A DAY
Number of Records: 231,632;   Date Range: 3/17/05 - 9/28/14
 
SHARE

PRINT THIS DATA

[ ← Previous Day ]
WEATHER ALMANAC - 13 FEBRUARY, 2013
[ Next Day → ]
[ °F ]   °C
Weather ElementAverageHighLow
Temperature5.2 °C7 °C (1:55 pm)3 °C (8:35 pm)
Dewpoint3.2 °C6 °C (12:35 am)2 °C (3:15 pm)
Humidity87.7 %100 % (12:35 am)71 % (3:15 pm)
Barometer1014.9 hPa1017.9 hPa (10:35 pm)1009.5 hPa (2:35 am)
Wind Speed13.4 km/h31.5 km/h (5:15 am)
Wind Gust40.7 km/h (4:15 am)
Weather ElementAverage
Visibility13.8 km
Wind DirectionWSW (253.7 °)

Weather ElementTotal
Precipitation1.52 mm
Heating Degree Days13.3 (Base 18.3)
Averaged from 70 records on 13 February, 2013
WEATHER CONDITIONS BREAKOUT
WIND DIRECTION BREAKOUT
WEATHER BY HOUR - 13 FEBRUARY, 2013
[ °F ]   °C
Local TimeTemperatureDewpointHumidityBarometerVisibilityWind DirectionWind SpeedGust SpeedPrecipitationEventsConditions
12:35 AM6 °C6 °C100 %1010.2 hPa4 kmNW (310°)11.1 km/h0.25 mmRainRain
12:55 AM6 °C6 °C100 %1009.8 hPa3.2 kmNW (310°)9.3 km/h0.25 mmDrizzle
1:15 AM6 °C6 °C100 %1009.8 hPa3.2 kmNW (320°)9.3 km/h0.25 mmLight Drizzle
1:35 AM6 °C6 °C100 %1009.8 hPa3.2 kmNW (310°)9.3 km/h0.25 mmLight Drizzle
1:55 AM6 °C6 °C100 %1009.8 hPa3.2 kmNW (310°)14.8 km/h0.25 mmOvercast
2:15 AM6 °C6 °C100 %1009.8 hPa3.2 kmNNW (330°)22.2 km/hRainLight Rain
2:35 AM6 °C5 °C93 %1009.5 hPa4.8 kmNNW (340°)20.4 km/hLight Drizzle
2:55 AM6 °C5 °C93 %1009.5 hPa11.3 kmNNW (340°)20.4 km/hOvercast
3:15 AM5 °C5 °C100 %1009.8 hPa11.3 kmNNW (330°)18.5 km/hOvercast
3:35 AM5 °C5 °C100 %1010.2 hPa4.8 kmNNW (330°)24.1 km/h31.5 km/hOvercast
3:55 AM5 °C5 °C100 %1010.2 hPa3.2 kmNNW (330°)22.2 km/h0.25 mmDrizzle
4:15 AM5 °C5 °C100 %1010.2 hPa4.8 kmNNW (340°)29.6 km/h40.7 km/hLight Drizzle
4:35 AM5 °C4 °C93 %1010.8 hPa6.4 kmNNW (330°)24.1 km/hOvercast
4:55 AM5 °C3 °C87 %1011.5 hPa8 kmNNW (340°)25.9 km/h33.3 km/hOvercast
5:15 AM5 °C3 °C87 %1011.9 hPa16.1 kmNorth (350°)31.5 km/h37 km/hRainLight Rain
5:35 AM5 °C3 °C87 %1012.2 hPa16.1 kmNNW (340°)24.1 km/h37 km/hLight Drizzle
5:55 AM4 °C3 °C93 %1012.5 hPa11.3 kmNNW (330°)24.1 km/hOvercast
6:15 AM4 °C3 °C93 %1012.9 hPa11.3 kmNW (320°)18.5 km/hOvercast
6:35 AM4 °C3 °C93 %1013.2 hPa16.1 kmNNW (330°)18.5 km/hOvercast
6:55 AM5 °C3 °C87 %1013.2 hPa16.1 kmNNW (330°)18.5 km/hOvercast
7:15 AM5 °C3 °C87 %1013.5 hPa16.1 kmNNW (330°)16.7 km/h27.8 km/hOvercast
7:35 AM5 °C3 °C87 %1013.9 hPa16.1 kmNNW (330°)16.7 km/hOvercast
7:55 AM5 °C3 °C87 %1014.6 hPa16.1 kmNW (320°)18.5 km/hOvercast
8:15 AM5 °C3 °C87 %1014.9 hPa16.1 kmNW (320°)16.7 km/hOvercast
8:35 AM5 °C3 °C87 %1015.2 hPa16.1 kmNW (320°)13 km/hOvercast
8:55 AM5 °C3 °C87 %1015.2 hPa16.1 kmNW (320°)13 km/hOvercast
9:15 AM5 °C3 °C87 %1015.6 hPa16.1 kmNNW (330°)9.3 km/hOvercast
9:35 AM5 °C3 °C87 %1015.9 hPa16.1 kmNW (310°)13 km/hOvercast
9:55 AM5 °C3 °C87 %1015.9 hPa16.1 kmNW (320°)11.1 km/hMostly Cloudy
10:15 AM5 °C3 °C87 %1016.3 hPa16.1 kmWNW (300°)9.3 km/hOvercast
10:35 AM5 °C3 °C87 %1016.9 hPa16.1 kmWNW (300°)18.5 km/hOvercast
10:55 AM5 °C3 °C87 %1017.3 hPa16.1 kmWNW (300°)14.8 km/hOvercast
11:15 AM5 °C3 °C87 %1017.6 hPa16.1 kmNW (310°)13 km/hOvercast
11:35 AM5 °C3 °C87 %1017.6 hPa16.1 kmWNW (300°)14.8 km/hOvercast
11:55 AM5 °C3 °C87 %1017.6 hPa16.1 kmWNW (300°)20.4 km/h27.8 km/hOvercast
12:15 PM5 °C3 °C87 %1017.3 hPa16.1 kmWNW (290°)16.7 km/hLight Drizzle
12:55 PM6 °C3 °C81 %1016.9 hPa16.1 kmWNW (300°)14.8 km/hOvercast
1:15 PM5 °C3 °C87 %1016.6 hPa16.1 kmNW (310°)18.5 km/hOvercast
1:35 PM5 °C3 °C87 %1016.3 hPa16.1 kmNNW (330°)13 km/hOvercast
1:55 PM7 °C4 °C81 %1016.3 hPa16.1 kmNW (310°)13 km/hMostly Cloudy
2:15 PM6 °C3 °C81 %1015.9 hPa16.1 kmNW (310°)11.1 km/hOvercast
2:35 PM7 °C3 °C76 %1015.9 hPa16.1 kmWNW (300°)9.3 km/hOvercast
2:55 PM7 °C3 °C76 %1015.6 hPa16.1 kmWest (280°)9.3 km/hOvercast
3:15 PM7 °C2 °C71 %1015.6 hPa16.1 kmCalmOvercast
3:35 PM7 °C3 °C76 %1015.9 hPa16.1 kmWNW (300°)9.3 km/hOvercast
3:55 PM7 °C3 °C76 %1015.9 hPa16.1 kmCalmOvercast
4:15 PM7 °C3 °C76 %1015.9 hPa16.1 kmWest (260°)5.6 km/hOvercast
4:35 PM7 °C2 °C71 %1015.9 hPa16.1 kmCalmMostly Cloudy
4:55 PM7 °C2 °C71 %1015.9 hPa16.1 kmCalmOvercast
5:15 PM7 °C3 °C76 %1016.3 hPa16.1 kmCalmOvercast
5:35 PM7 °C3 °C76 %1016.3 hPa16.1 kmSouth (170°)7.4 km/hOvercast
5:55 PM6 °C3 °C81 %1016.6 hPa16.1 kmSouth (170°)7.4 km/hOvercast
6:15 PM6 °C3 °C81 %1016.6 hPa16.1 kmSouth (170°)9.3 km/hOvercast
6:35 PM6 °C3 °C81 %1016.6 hPa16.1 kmSouth (170°)9.3 km/hOvercast
6:55 PM6 °C3 °C81 %1016.6 hPa16.1 kmSouth (170°)9.3 km/hOvercast
7:15 PM6 °C3 °C81 %1016.9 hPa16.1 kmSouth (170°)11.1 km/hOvercast
7:35 PM6 °C3 °C81 %1016.9 hPa16.1 kmSouth (170°)9.3 km/hMostly Cloudy
7:55 PM5 °C2 °C81 %1016.9 hPa16.1 kmSouth (170°)9.3 km/hScattered Clouds
8:15 PM4 °C2 °C87 %1017.3 hPa16.1 kmSouth (170°)9.3 km/hScattered Clouds
8:35 PM3 °C2 °C93 %1016.9 hPa16.1 kmSouth (170°)13 km/hClear
8:55 PM3 °C2 °C93 %1017.3 hPa16.1 kmSouth (180°)7.4 km/hClear
9:15 PM3 °C2 °C93 %1017.3 hPa16.1 kmSouth (170°)9.3 km/hClear
9:35 PM3 °C2 °C93 %1017.3 hPa16.1 kmSouth (170°)13 km/hClear
9:55 PM3 °C2 °C93 %1017.6 hPa16.1 kmSouth (180°)7.4 km/hClear
10:15 PM3 °C2 °C93 %1017.6 hPa16.1 kmSouth (170°)9.3 km/hClear
10:35 PM3 °C2 °C93 %1017.9 hPa16.1 kmSouth (180°)11.1 km/hClear
10:55 PM3 °C2 °C93 %1017.9 hPa16.1 kmSouth (180°)9.3 km/hClear
11:15 PM3 °C2 °C93 %1017.9 hPa16.1 kmSouth (180°)11.1 km/hClear
11:35 PM3 °C2 °C93 %1017.9 hPa16.1 kmSouth (190°)13 km/hClear
11:55 PM3 °C2 °C93 %1017.9 hPa16.1 kmSouth (190°)11.1 km/hClear
Hourly data recorded from KUTA, located 0 kilometers away from Sledge, Mississippi







STORIES FROM OUR PARTNERS